Temperature
6 6 6 6 5 5 5 5 5 5 5 5 5 5 5 4 4 4 4 4 4 4 4 4 4 3 3 3 3 3 3 2 2 2 2 3 3 3 4 4 4 4 4
6 6 6 5 5 5 5 5 5 4 4 4 4 4 4 4 4 4 4 3 3 3 3 3 3 3 2 2 2 2 2 1 1 1 1 2 2 2 2 3 3 3 3
5 5 5 5 5 5 5 4 4 4 4 4 4 4 4 3 3 3 3 3 3 2 2 2 2 2 2 1 1 1 1 0 0 0 0 1 1 1 1 2 2 2 2
5 5 5 5 4 4 4 4 4 4 3 3 3 3 3 3 3 2 2 2 2 2 2 1 1 1 1 0 -0 -1 -1 -1 -1 -1 -1 -1 -1 -0 -0 0 1 1 1
5 5 5 4 4 4 4 4 3 3 3 3 3 2 2 2 2 2 1 1 1 1 1 1 0 0 -0 -0 -1 -1 -2 -2 -2 -2 -2 -2 -2 -2 -2 -2 -2 -1 -0
5 5 4 4 4 4 3 3 3 3 3 2 2 2 2 2 1 1 1 1 0 0 0 -0 -0 -1 -1 -1 -1 -2 -2 -3 -3 -3 -3 -4 -4 -4 -4 -4 -4 -3 -3
5 5 4 4 4 4 3 3 3 3 2 2 2 2 1 1 1 1 0 0 -0 -0 -1 -1 -1 -1 -2 -2 -2 -2 -3 -3 -4 -4 -4 -5 -5 -5 -5 -5 -5 -5 -5
5 5 4 4 4 3 3 3 2 2 2 2 1 1 1 1 0 0 -0 -1 -1 -1 -1 -2 -2 -2 -3 -3 -3 -4 -4 -4 -4 -4 -5 -5 -5 -5 -5 -5 -5 -5 -5
5 5 4 4 4 3 3 3 2 2 2 1 1 1 0 0 -0 -0 -1 -1 -1 -1 -2 -2 -2 -3 -3 -4 -4 -5 -5 -5 -5 -5 -5 -5 -5 -5 -5 -6 -6 -6 -6
5 5 4 4 3 3 3 2 2 2 1 1 1 0 -0 -0 -1 -1 -1 -2 -2 -2 -2 -3 -3 -3 -4 -4 -5 -5 -5 -5 -5 -5 -5 -6 -6 -6 -6 -6 -7 -7 -7
4 4 4 3 3 3 2 2 2 1 1 1 0 -0 -0 -1 -1 -1 -2 -2 -3 -3 -3 -3 -4 -4 -4 -5 -5 -5 -5 -6 -6 -6 -6 -6 -6 -6 -7 -7 -7 -7 -7
4 4 3 3 3 2 2 2 1 1 1 0 -0 -0 -1 -1 -1 -2 -2 -3 -3 -4 -4 -4 -4 -4 -5 -5 -5 -5 -6 -6 -6 -6 -6 -7 -7 -7 -7 -7 -7 -7 -7
4 3 3 3 2 2 2 1 1 0 0 -0 -0 -1 -1 -1 -2 -2 -3 -3 -3 -4 -4 -4 -5 -5 -5 -5 -5 -6 -6 -6 -7 -7 -7 -7 -7 -7 -7 -7 -7 -7 -7
3 3 3 2 2 2 1 1 1 0 -0 -1 -1 -1 -2 -2 -2 -3 -3 -3 -4 -4 -5 -5 -5 -5 -5 -6 -6 -6 -6 -7 -7 -7 -8 -8 -8 -8 -8 -8 -8 -8 -7
3 3 2 2 2 2 1 1 0 0 -0 -1 -1 -2 -2 -2 -2 -3 -4 -4 -5 -5 -6 -6 -6 -6 -6 -6 -7 -7 -7 -7 -8 -8 -8 -8 -8 -8 -8 -8 -8 -8 -8
2 2 2 2 1 1 1 0 0 -0 -1 -1 -2 -2 -2 -3 -3 -4 -4 -5 -5 -6 -6 -6 -6 -7 -7 -7 -7 -7 -7 -8 -8 -8 -8 -9 -9 -9 -9 -9 -9 -9 -9
2 2 1 1 1 1 0 0 -0 -1 -1 -1 -2 -2 -3 -3 -4 -4 -4 -5 -5 -6 -6 -6 -7 -7 -7 -7 -7 -8 -8 -8 -8 -8 -9 -9 -9 -9 -9 -9 -9 -9 -9
2 1 1 1 1 0 -0 -0 -1 -1 -2 -2 -2 -3 -3 -4 -4 -5 -5 -5 -6 -6 -6 -6 -7 -7 -7 -7 -8 -8 -8 -8 -8 -8 -9 -9 -9 -9 -9 -9 -9 -9 -10
1 1 1 0 0 -0 -1 -1 -1 -2 -2 -3 -3 -3 -4 -4 -5 -5 -5 -6 -6 -6 -6 -7 -7 -7 -7 -8 -8 -8 -8 -8 -8 -9 -9 -9 -9 -9 -9 -9 -9 -10 -10
1 1 0 -0 -0 -1 -1 -1 -2 -2 -3 -3 -3 -4 -4 -5 -5 -5 -6 -6 -6 -6 -6 -7 -7 -7 -7 -8 -8 -8 -8 -9 -9 -9 -9 -9 -9 -9 -10 -10 -10 -10 -10
0 0 -0 -1 -1 -1 -1 -2 -2 -3 -3 -3 -4 -4 -4 -5 -5 -5 -6 -6 -6 -7 -7 -7 -7 -7 -8 -8 -8 -8 -9 -9 -9 -9 -9 -9 -9 -9 -10 -10 -10 -10 -10
-0 -0 -1 -1 -1 -2 -2 -2 -3 -3 -3 -4 -4 -4 -5 -5 -6 -6 -6 -6 -7 -7 -7 -7 -7 -8 -8 -8 -8 -9 -9 -9 -9 -9 -9 -9 -9 -9 -10 -10 -10 -10 -10
-1 -1 -1 -2 -2 -2 -3 -3 -3 -4 -4 -4 -5 -5 -5 -6 -6 -6 -6 -7 -7 -7 -7 -7 -8 -8 -8 -8 -9 -9 -9 -9 -9 -9 -9 -9 -9 -9 -10 -10 -10 -10 -10
-1 -1 -2 -2 -2 -3 -3 -3 -4 -4 -4 -5 -5 -5 -6 -6 -6 -6 -7 -7 -7 -7 -7 -8 -8 -8 -8 -9 -9 -9 -9 -9 -9 -9 -9 -9 -9 -9 -10 -10 -10 -10 -10
-1 -2 -2 -2 -3 -3 -3 -4 -4 -4 -5 -5 -5 -6 -6 -6 -6 -7 -7 -7 -7 -7 -8 -8 -8 -8 -8 -9 -9 -9 -9 -9 -9 -9 -9 -9 -9 -9 -9 -10 -10 -10 -10
-2 -2 -2 -3 -3 -3 -4 -4 -4 -5 -5 -6 -6 -6 -6 -7 -7 -7 -7 -8 -8 -8 -8 -8 -8 -8 -9 -9 -9 -9 -9 -9 -9 -9 -9 -9 -9 -9 -9 -9 -9 -10 -9
Wind_Speed
4 4 4 3 3 2 2 1 1 1 1 2 3 3 4 4 4 4 4 4 5 5 5 5 5 5 4 4 4 3 3 3 5 5 5 7 8 9 9 10 10 10 10
5 5 5 4 4 3 3 2 1 1 1 1 2 2 2 3 3 3 3 3 4 4 4 4 4 4 4 4 3 3 3 3 4 7 6 6 8 9 10 10 9 9 10
5 5 5 5 5 5 4 3 2 2 1 1 1 1 1 2 2 2 2 2 2 3 3 3 4 4 4 4 4 3 3 4 4 5 6 6 7 7 10 9 10 9 10
6 6 6 6 6 5 4 3 3 2 2 2 1 2 1 1 1 1 1 1 1 2 2 2 3 3 4 4 3 4 4 4 4 5 6 6 6 8 8 9 9 9 9
7 7 7 6 6 5 5 4 4 3 3 3 2 2 2 2 2 2 2 2 2 2 2 2 3 4 5 4 4 4 5 5 5 5 6 6 7 7 8 8 10 10 10
8 8 7 7 6 6 6 5 5 5 4 4 3 3 3 2 2 3 3 3 3 3 3 3 3 3 4 5 5 6 6 6 6 6 6 7 8 9 8 9 9 10 8
8 8 8 8 7 7 7 6 6 6 5 5 5 4 4 4 4 5 5 4 4 3 3 4 3 3 4 4 5 6 6 6 7 7 8 8 9 9 10 11 10 11 11
8 8 8 8 8 7 7 7 7 6 6 6 5 5 5 5 5 5 6 5 4 4 4 4 5 5 4 6 6 6 6 6 7 6 7 8 9 9 10 10 11 12 12
8 9 8 8 8 8 8 8 7 6 6 6 5 6 6 5 6 6 6 4 4 5 5 5 5 6 6 8 7 7 8 7 6 8 10 11 12 12 11 8 9 9 10
9 8 8 8 9 9 8 8 6 6 6 6 6 6 6 6 6 7 7 5 5 5 5 5 6 7 8 8 7 7 8 8 8 8 8 9 10 9 10 8 7 8 8
7 7 8 8 9 9 8 7 7 6 6 6 6 6 7 7 7 8 8 6 6 6 5 5 4 7 8 9 9 7 8 10 9 8 8 8 7 7 7 7 7 7 8
6 7 8 8 7 7 8 7 7 7 6 6 6 6 6 6 7 8 9 9 8 7 6 5 5 8 9 10 8 8 10 10 7 7 7 7 7 7 7 8 9 9 10
7 8 7 7 7 7 8 8 7 6 6 6 6 6 6 5 6 9 9 10 9 7 6 8 9 9 9 8 8 9 9 7 6 6 7 7 7 7 8 8 9 10 11
8 8 7 7 7 8 7 7 7 7 7 7 7 7 6 5 5 5 5 6 8 8 7 7 9 9 8 8 7 6 5 6 6 7 7 7 7 7 7 7 8 8 9
8 7 7 7 7 7 7 7 8 8 8 8 7 7 6 6 6 7 6 5 5 6 6 5 5 5 5 5 5 5 5 5 6 6 7 7 8 8 8 7 7 8 9
7 7 7 6 6 6 6 6 9 9 10 12 11 9 8 9 9 9 10 10 10 9 7 6 6 6 6 6 6 6 6 6 6 6 7 7 8 8 9 8 8 8 10
9 8 6 7 7 7 7 6 6 7 10 12 13 13 12 11 11 10 10 10 10 9 7 7 6 6 6 6 6 6 7 7 6 7 8 8 8 8 9 9 9 9 10
9 9 8 7 7 7 7 7 6 6 6 6 9 12 12 11 11 10 10 8 7 7 6 7 6 6 6 6 6 6 7 7 7 7 8 8 8 8 9 9 9 10 10
8 7 7 7 7 7 6 6 6 7 6 5 5 6 9 9 10 10 9 7 7 6 6 6 6 6 6 6 6 7 7 8 8 8 8 9 8 9 9 9 10 13 12
7 9 8 6 6 6 6 6 6 6 6 6 6 6 5 6 6 6 7 7 7 7 6 6 6 6 6 6 7 7 7 8 8 8 8 8 9 9 10 11 10 10 10
6 7 9 7 7 7 7 7 7 7 7 7 7 7 8 6 6 7 6 6 7 7 6 6 6 6 7 6 7 8 9 8 8 8 9 9 9 9 10 10 10 10 10
6 6 6 7 7 6 7 6 7 7 7 8 6 6 10 7 7 6 6 6 6 6 6 6 6 6 6 7 7 8 8 9 9 9 9 9 9 10 10 10 10 10 10
6 6 6 6 6 7 7 6 7 7 7 7 6 6 6 7 7 7 7 6 6 6 6 6 7 7 7 7 8 8 9 9 9 9 10 10 10 10 10 11 12 12 11
6 7 7 6 6 6 7 7 7 7 7 7 6 6 6 7 7 7 6 6 6 6 6 6 7 9 10 9 9 10 10 11 11 11 13 12 12 11 10 11 12 13 12
6 7 7 7 7 7 7 7 7 7 7 7 6 6 6 6 6 6 6 6 6 6 7 7 7 8 10 11 11 11 14 17 17 14 12 11 12 12 12 12 12 12 12
7 7 6 6 7 7 7 7 7 7 7 6 6 6 6 6 6 6 5 5 5 6 6 7 8 10 11 11 13 14 16 18 18 18 13 10 11 11 11 11 13 12 13
Wind_Direction
220 219 220 222 216 210 214 236 276 318 341 348 0 7 13 18 20 29 30 25 29 27 23 26 25 17 12 11 6 359 347 322 292 301 314 325 329 335 334 334 331 331 329
217 213 214 214 212 210 211 218 230 263 304 328 350 2 12 16 19 24 26 25 24 21 16 15 12 8 9 5 0 355 345 335 307 303 314 326 328 330 329 330 332 329 329
213 212 213 212 214 216 214 212 215 232 259 284 314 332 346 359 7 12 16 16 16 10 4 359 357 356 356 354 349 344 336 331 318 302 308 317 318 325 326 326 328 327 327
212 212 217 219 218 218 215 213 214 220 236 253 270 282 295 314 319 328 342 337 345 353 352 347 345 342 338 334 332 332 325 319 314 307 307 312 316 322 326 328 327 329 325
215 217 221 221 217 215 212 212 213 217 226 238 247 258 266 276 277 286 293 297 308 319 326 330 339 342 338 328 323 323 320 313 313 311 310 314 318 326 327 326 320 321 320
219 221 219 214 211 211 213 212 213 218 223 229 238 248 254 252 265 273 277 282 286 294 302 308 314 311 317 317 317 318 316 310 310 307 306 307 312 317 318 318 317 317 316
222 222 216 212 213 214 212 213 216 219 222 227 232 238 246 248 255 264 263 272 274 282 289 293 296 301 304 303 304 298 297 296 295 295 295 299 306 312 313 310 309 306 300
224 223 218 214 216 215 214 218 222 223 225 229 232 236 245 250 251 260 260 261 265 268 272 278 285 293 299 302 300 297 295 293 293 290 290 295 300 305 304 300 300 299 295
226 225 219 215 216 215 217 220 221 221 225 228 231 237 242 250 247 253 259 261 261 267 269 274 279 284 292 294 293 293 293 293 288 284 286 289 293 295 299 300 301 302 301
230 227 220 216 216 218 219 219 217 219 225 226 232 236 242 250 251 251 253 258 261 266 268 267 267 277 289 294 292 291 293 299 301 296 289 287 289 290 292 290 292 294 297
236 227 220 216 217 219 217 213 212 215 221 226 235 238 241 246 250 250 249 251 257 265 267 269 270 278 284 290 290 287 292 299 297 294 293 293 293 293 295 293 288 282 282
230 224 221 217 214 213 212 210 210 212 220 228 236 244 242 241 243 245 246 250 259 262 266 270 274 281 285 289 289 292 296 296 290 289 289 291 295 297 298 296 291 284 276
227 226 223 218 214 211 210 209 209 213 221 229 233 241 244 240 239 241 245 251 256 259 265 271 277 281 282 283 284 291 292 287 286 286 287 290 292 293 295 294 292 288 282
230 228 221 217 215 212 212 211 211 213 219 226 231 237 241 239 237 234 238 245 249 255 263 266 270 273 272 277 281 282 280 282 285 284 287 290 291 289 288 291 294 298 293
232 229 223 218 217 216 216 217 219 223 223 225 231 235 237 241 237 237 246 250 254 259 265 264 265 268 269 271 274 278 279 279 281 282 284 287 289 288 287 288 287 289 285
232 229 223 219 217 217 219 227 227 231 232 234 238 239 243 248 253 249 252 258 261 264 261 257 261 264 268 272 276 280 281 280 281 283 282 282 285 286 287 286 283 282 284
230 228 224 220 218 216 217 220 230 229 230 235 238 240 243 249 250 252 256 259 257 257 253 253 257 260 264 268 271 275 279 281 282 278 278 279 280 282 283 284 284 283 283
232 227 223 223 221 219 219 222 225 227 229 233 233 236 240 244 247 250 253 256 250 244 246 251 254 257 261 265 268 272 277 280 277 276 277 277 276 277 279 280 281 282 284
230 226 222 223 222 221 220 221 223 227 232 234 231 230 230 238 242 244 244 243 245 247 248 250 253 256 259 263 267 270 273 275 275 276 276 277 276 275 275 276 279 281 281
231 223 218 220 220 218 217 219 221 222 226 229 229 227 216 222 231 234 234 238 243 248 250 252 253 256 259 262 266 269 271 272 274 273 275 276 276 274 274 275 276 279 278
230 222 212 219 221 218 218 221 222 222 225 230 231 225 218 224 231 235 236 238 242 246 249 251 254 256 256 259 263 265 268 271 272 273 274 275 275 275 274 274 274 274 276
225 222 218 220 221 220 222 223 223 225 228 232 234 228 225 229 233 236 237 240 243 246 248 250 253 255 255 258 262 266 268 270 272 273 275 276 275 274 274 274 274 275 275
224 223 223 223 222 222 225 226 225 226 229 231 229 226 224 227 232 235 238 241 243 245 246 247 252 256 257 258 260 261 265 269 272 276 278 278 278 276 275 274 274 275 274
223 222 223 223 221 222 224 226 225 226 228 229 230 229 229 230 233 235 239 242 243 245 246 248 252 257 261 265 266 265 264 269 274 275 274 274 276 277 274 273 273 273 273
225 225 224 223 222 224 226 227 226 226 226 228 230 231 232 232 234 237 237 239 243 246 248 253 256 259 261 265 269 271 274 278 281 280 277 274 273 272 272 272 272 274 273
228 228 229 226 224 225 225 226 226 225 226 227 229 230 230 231 233 236 237 238 242 248 252 255 257 262 269 270 272 276 282 285 287 287 286 280 276 276 278 276 277 274 275
Height
1496 1495 1495 1494 1493 1492 1492 1491 1490 1488 1487 1485 1484 1482 1481 1479 1477 1476 1474 1473 1471 1470 1468 1466 1465 1463 1462 1461 1460 1459 1458 1457 1455 1452 1450 1448 1446 1444 1442 1440 1438 1436 1435
1493 1492 1492 1491 1490 1490 1489 1488 1487 1486 1484 1483 1482 1480 1479 1477 1475 1474 1472 1471 1469 1468 1466 1465 1463 1461 1460 1459 1457 1456 1455 1453 1452 1449 1446 1444 1442 1440 1438 1436 1434 1432 1430
1489 1489 1488 1488 1487 1487 1486 1485 1484 1483 1482 1481 1479 1478 1477 1475 1473 1472 1470 1469 1467 1465 1464 1462 1461 1459 1458 1456 1455 1453 1452 1450 1448 1446 1443 1441 1439 1437 1434 1432 1430 1427 1425
1485 1485 1485 1484 1484 1483 1483 1482 1481 1480 1479 1478 1477 1475 1474 1472 1471 1469 1468 1466 1465 1463 1461 1460 1459 1457 1455 1454 1452 1451 1449 1447 1445 1443 1440 1438 1436 1433 1431 1428 1425 1423 1420
1481 1481 1481 1481 1480 1480 1479 1479 1478 1477 1476 1475 1474 1473 1471 1470 1468 1467 1465 1464 1462 1461 1459 1457 1456 1454 1453 1451 1450 1448 1446 1444 1442 1440 1438 1435 1433 1431 1428 1425 1422 1419 1416
1477 1477 1477 1477 1477 1476 1476 1475 1474 1473 1473 1472 1470 1469 1468 1467 1466 1464 1463 1461 1460 1458 1456 1455 1453 1451 1450 1448 1446 1445 1443 1442 1439 1437 1435 1433 1430 1428 1426 1423 1420 1416 1412
1473 1473 1473 1473 1472 1472 1472 1471 1470 1470 1469 1468 1467 1466 1465 1464 1462 1461 1459 1458 1456 1455 1453 1452 1450 1448 1446 1445 1443 1441 1440 1438 1437 1435 1432 1430 1428 1425 1423 1420 1417 1414 1410
1469 1469 1468 1468 1468 1468 1467 1467 1466 1466 1465 1464 1463 1462 1461 1460 1459 1458 1456 1454 1453 1451 1450 1448 1446 1445 1443 1441 1440 1438 1436 1435 1433 1431 1429 1426 1424 1422 1419 1417 1414 1410 1407
1464 1464 1464 1464 1463 1463 1463 1462 1462 1461 1460 1460 1459 1458 1457 1456 1455 1454 1452 1450 1449 1447 1446 1444 1443 1441 1439 1438 1436 1434 1432 1431 1429 1427 1425 1422 1420 1418 1415 1413 1410 1407 1402
1460 1459 1459 1459 1459 1458 1458 1458 1457 1457 1456 1455 1454 1453 1452 1451 1450 1449 1448 1446 1444 1443 1442 1440 1439 1437 1436 1434 1432 1431 1429 1427 1425 1422 1420 1418 1416 1413 1411 1409 1406 1403 1399
1455 1455 1454 1454 1454 1454 1453 1453 1452 1452 1451 1450 1449 1448 1447 1446 1445 1444 1443 1442 1440 1439 1437 1436 1434 1433 1431 1430 1428 1426 1424 1422 1420 1418 1415 1413 1411 1409 1406 1404 1402 1399 1396
1450 1449 1449 1449 1449 1449 1448 1448 1447 1447 1446 1445 1444 1443 1442 1441 1440 1439 1438 1437 1436 1434 1433 1431 1430 1428 1427 1425 1424 1421 1420 1418 1416 1413 1411 1409 1406 1404 1402 1399 1397 1394 1391
1445 1444 1444 1444 1443 1443 1443 1443 1442 1441 1441 1440 1439 1438 1437 1436 1435 1434 1433 1432 1431 1430 1428 1426 1425 1423 1422 1420 1419 1417 1415 1413 1411 1409 1406 1404 1402 1399 1396 1394 1391 1389 1386
1439 1439 1438 1438 1438 1438 1437 1437 1437 1436 1435 1434 1433 1432 1431 1430 1430 1429 1428 1427 1426 1424 1423 1422 1420 1419 1417 1416 1414 1412 1411 1409 1407 1404 1402 1399 1397 1394 1391 1389 1386 1383 1380
1434 1433 1432 1432 1432 1432 1432 1431 1431 1431 1430 1429 1428 1427 1426 1425 1425 1424 1423 1422 1421 1420 1418 1417 1416 1414 1413 1411 1410 1408 1406 1404 1402 1400 1397 1394 1392 1389 1387 1384 1381 1378 1374
1427 1427 1426 1426 1426 1425 1425 1425 1425 1425 1424 1423 1422 1422 1420 1420 1420 1418 1418 1417 1416 1415 1414 1412 1411 1410 1408 1407 1405 1403 1402 1399 1397 1395 1392 1390 1387 1384 1382 1379 1376 1373 1369
1421 1421 1420 1420 1419 1419 1419 1419 1419 1419 1418 1417 1416 1416 1415 1415 1414 1413 1412 1412 1411 1410 1409 1407 1406 1405 1403 1402 1400 1398 1396 1395 1392 1390 1387 1385 1382 1379 1376 1373 1371 1368 1364
1415 1414 1414 1413 1413 1413 1413 1413 1413 1412 1412 1411 1411 1410 1410 1409 1409 1408 1407 1407 1405 1404 1403 1402 1401 1399 1398 1397 1395 1393 1391 1389 1387 1385 1382 1380 1377 1374 1371 1368 1365 1362 1358
1409 1408 1408 1407 1407 1407 1407 1407 1407 1407 1406 1405 1405 1405 1404 1404 1403 1403 1402 1401 1400 1399 1398 1397 1396 1394 1393 1391 1390 1388 1386 1384 1382 1379 1377 1374 1371 1369 1365 1362 1359 1356 1353
1402 1402 1402 1401 1401 1401 1401 1401 1401 1400 1400 1399 1399 1399 1399 1398 1398 1397 1397 1396 1395 1394 1393 1392 1390 1389 1388 1386 1384 1383 1380 1378 1376 1373 1371 1368 1366 1363 1360 1357 1354 1350 1347
1396 1396 1395 1395 1395 1395 1395 1395 1395 1394 1394 1394 1393 1393 1393 1393 1392 1392 1391 1390 1389 1388 1387 1386 1385 1384 1382 1381 1379 1377 1375 1372 1370 1368 1365 1362 1359 1357 1354 1351 1348 1344 1341
1390 1390 1389 1389 1389 1389 1389 1389 1389 1388 1388 1388 1388 1388 1387 1387 1386 1386 1385 1385 1384 1383 1382 1381 1380 1378 1377 1375 1373 1371 1369 1367 1364 1362 1359 1356 1353 1350 1347 1344 1341 1338 1335
1385 1384 1384 1383 1383 1383 1383 1383 1383 1383 1382 1382 1382 1382 1381 1381 1381 1380 1380 1379 1378 1378 1377 1375 1374 1373 1371 1369 1368 1366 1363 1361 1359 1356 1353 1350 1347 1344 1341 1338 1335 1332 1329
1380 1379 1378 1378 1377 1377 1377 1377 1377 1377 1377 1376 1376 1376 1376 1376 1375 1375 1374 1374 1373 1372 1371 1370 1368 1367 1365 1364 1362 1360 1358 1355 1353 1350 1347 1344 1341 1338 1335 1332 1329 1326 1323
1374 1373 1373 1372 1372 1371 1371 1371 1371 1371 1371 1371 1371 1370 1370 1370 1370 1369 1369 1368 1367 1367 1366 1364 1363 1361 1360 1358 1356 1354 1352 1350 1347 1345 1342 1339 1335 1332 1329 1326 1323 1320 1318
1369 1368 1367 1366 1366 1366 1365 1365 1365 1365 1365 1365 1365 1365 1365 1364 1364 1364 1363 1363 1362 1361 1360 1359 1357 1356 1354 1352 1350 1348 1346 1344 1341 1339 1336 1333 1330 1327 1324 1321 1318 1315 1312